Weather History for EDDH - October, 2013

Change the Weather History Date:

Friday, October 4, 2013

  Actual Average Record
Temperature  
Mean Temperature 48 °F -  
Max Temperature 55 °F 55 °F 69 °F (2014)
Min Temperature 40 °F 42 °F 37 °F (1998)
Degree Days  
Heating Degree Days 18    
Moisture  
Dew Point 36 °F    
Average Humidity 60    
Maximum Humidity 76    
Minimum Humidity 37    
Precipitation  
Precipitation 0.02 in 0.08 in - ()
Sea Level Pressure  
Sea Level Pressure 30.08 in    
Wind  
Wind Speed 14 mph ()    
Max Wind Speed 20 mph    
Max Gust Speed -    
Visibility 9.4 miles    
Events Rain    
Averages and records for this station are not official NWS values.
T = Trace of Precipitation, MM = Missing Value Source: Averaged Metar Reports

Daily Weather History Graph

Daily Weather History Graph

Search for Another Location

Airport or City:

Trip Planner

Search our weather history database for the weather conditions in past years. The results will help you decide how hot, cold, wet, or windy it might be!

Date:

Astronomy

Oct. 04, 2013 Rise Set
Actual Time 7:27 AM CEST 6:49 PM CEST
Civil Twilight 6:52 AM CEST 7:24 PM CEST
Nautical Twilight 6:11 AM CEST 8:04 PM CEST
Astronomical Twilight 5:29 AM CEST 8:46 PM CEST
Moon 6:44 AM CEST (10/4) 6:18 PM CEST (10/4)
Length of Visible Light 12h 31m
Length of Day
11h 22m
Waning Crescent, 0% of the Moon is Illuminated
Oct 4
Waning Crescent
Oct 5
New
Oct 12
First Quarter
Oct 19
Full
Oct 27
Last Quarter

Hourly Weather History & Observations

Time (CEST) Temp. Windchill Dew Point Humidity Pressure Visibility Wind Dir Wind Speed Gust Speed Precip Events Conditions
12:00 AM 45 °F - 32 °F 49% 30.19 in 25 mi SE 20.1 mph - -  
12:20 AM 44.6 °F 37.4 °F 32.0 °F 61% 30.18 in - SE 16.1 mph - N/A   Clear
12:50 AM 44.6 °F 37.2 °F 32.0 °F 61% 30.15 in - SE 17.3 mph - N/A   Clear
1:00 AM 44 °F - 32 °F 52% 30.19 in 25 mi SE 17.9 mph - -  
1:20 AM 44.6 °F 37.2 °F 32.0 °F 61% 30.15 in - ESE 17.3 mph - N/A   Clear
1:50 AM 42.8 °F 35.1 °F 32.0 °F 66% 30.15 in - SE 16.1 mph - N/A   Clear
2:00 AM 43 °F - 32 °F 54% 30.18 in 25 mi SE 15.7 mph - -  
2:20 AM 42.8 °F 35.4 °F 32.0 °F 66% 30.15 in - SE 15.0 mph - N/A   Clear
2:50 AM 42.8 °F 36.2 °F 32.0 °F 66% 30.15 in - SE 12.7 mph - N/A   Clear
3:00 AM 42 °F - 32 °F 56% 30.18 in 25 mi SE 13.4 mph - -  
3:20 AM 42.8 °F 36.6 °F 32.0 °F 66% 30.15 in - SE 11.5 mph - N/A   Clear
3:50 AM 42.8 °F 35.4 °F 32.0 °F 66% 30.15 in - SE 15.0 mph - N/A   Clear
4:00 AM 42 °F - 32 °F 57% 30.17 in 25 mi SE 15.7 mph - -  
4:20 AM 42.8 °F 35.8 °F 32.0 °F 66% 30.12 in - SE 13.8 mph - N/A   Clear
4:50 AM 41.0 °F 33.1 °F 32.0 °F 70% 30.12 in - SE 15.0 mph - N/A   Clear
5:20 AM 41.0 °F 33.5 °F 32.0 °F 70% 30.12 in - SE 13.8 mph - N/A   Clear
5:50 AM 41.0 °F 33.9 °F 32.0 °F 70% 30.12 in - SE 12.7 mph - N/A   Clear
6:20 AM 41.0 °F 33.9 °F 32.0 °F 70% 30.12 in - SE 12.7 mph - N/A   Clear
6:50 AM 41.0 °F 33.5 °F 32.0 °F 70% 30.09 in - SE 13.8 mph - N/A   Clear
7:00 AM 40 °F - 32 °F 63% 30.12 in 22 mi SE 13.4 mph - -   Clear
7:20 AM 41.0 °F 33.9 °F 32.0 °F 70% 30.09 in - SE 12.7 mph - N/A   Clear
7:50 AM 41.0 °F 33.5 °F 32.0 °F 70% 30.09 in - SE 13.8 mph - N/A   Clear
8:20 AM 41.0 °F 33.1 °F 32.0 °F 70% 30.09 in - SE 15.0 mph - N/A   Clear
8:50 AM 41.0 °F 33.5 °F 32.0 °F 70% 30.09 in - SE 13.8 mph - N/A   Clear
9:20 AM 44.6 °F 37.4 °F 32.0 °F 61% 30.09 in - SE 16.1 mph - N/A   Clear
9:50 AM 44.6 °F 37.4 °F 32.0 °F 61% 30.09 in - SE 16.1 mph - N/A   Clear
10:00 AM 45 °F - 32 °F 48% 30.11 in 16 mi SSE 15.7 mph - -   Scattered Clouds
10:20 AM 46.4 °F 39.2 °F 32.0 °F 57% 30.09 in - SSE 18.4 mph - N/A   Clear
10:50 AM 46.4 °F 39.5 °F 32.0 °F 57% 30.09 in - SE 17.3 mph - N/A   Clear
11:20 AM 48.2 °F - 32.0 °F 54% 30.09 in - SE 16.1 mph - N/A   Clear
11:50 AM 50.0 °F - 33.8 °F 54% 30.06 in - SE 16.1 mph - N/A   Clear
12:00 PM 50 °F - 33 °F 40% 30.10 in 16 mi SE 15.7 mph - -   Scattered Clouds
12:20 PM 51.8 °F - 33.8 °F 50% 30.06 in - SSE 17.3 mph - N/A   Clear
12:50 PM 53.6 °F - 33.8 °F 47% 30.06 in - SSE 17.3 mph - N/A   Clear
1:20 PM 53.6 °F - 33.8 °F 47% 30.06 in - SSE 16.1 mph - N/A   Clear
1:50 PM 53.6 °F - 35.6 °F 51% 30.04 in - SE 12.7 mph - N/A   Clear
2:20 PM 53.6 °F - 35.6 °F 51% 30.04 in 6.2 mi SE 13.8 mph - N/A   Mostly Cloudy
2:50 PM 53.6 °F - 35.6 °F 51% 30.04 in 6.2 mi SSE 13.8 mph - N/A   Mostly Cloudy
3:00 PM 54 °F - 35 °F 37% 30.06 in 19 mi SSE 13.4 mph - -   Partly Cloudy
3:20 PM 55.4 °F - 35.6 °F 47% 30.04 in 6.2 mi SE 15.0 mph - N/A   Mostly Cloudy
3:50 PM 55.4 °F - 37.4 °F 51% 30.04 in 6.2 mi SE 15.0 mph - N/A Rain Light Rain
4:00 PM 54 °F - 36 °F 40% 30.06 in 16 mi SE 15.7 mph - - Rain Light Rain
4:20 PM 55.4 °F - 37.4 °F 51% 30.04 in 6.2 mi SSE 16.1 mph - N/A Rain Light Rain
4:50 PM 55.4 °F - 37.4 °F 51% 30.04 in - SSE 17.3 mph - N/A   Clear
5:20 PM 53.6 °F - 39.2 °F 58% 30.01 in - SSE 16.1 mph - N/A   Unknown
5:50 PM 53.6 °F - 39.2 °F 58% 30.04 in 6.2 mi SSE 13.8 mph - N/A Rain Light Rain
6:00 PM 54 °F - 38 °F 43% 30.04 in 16 mi SSE 13.4 mph - - Rain Light Rain
6:20 PM 53.6 °F - 41.0 °F 62% 30.01 in 6.2 mi SSE 12.7 mph - N/A Rain Light Rain
6:50 PM 51.8 °F - 42.8 °F 71% 30.01 in 6.2 mi SE 12.7 mph - N/A Rain Light Rain
7:00 PM 52 °F - 43 °F 63% 30.03 in 9 mi SE 13.4 mph - - Rain Light Rain
7:20 PM 51.8 °F - 42.8 °F 71% 30.04 in 6.2 mi SSE 10.4 mph - N/A Rain Light Rain
7:50 PM 51.8 °F - 42.8 °F 71% 30.04 in 6.2 mi SSE 11.5 mph - N/A   Mostly Cloudy
8:00 PM 52 °F - 43 °F 61% 30.05 in 16 mi SSE 11.2 mph - - Rain Light Rain
8:20 PM 53.6 °F - 42.8 °F 67% 30.04 in 6.2 mi SSE 11.5 mph - N/A   Mostly Cloudy
8:50 PM 51.8 °F - 42.8 °F 71% 30.04 in 6.2 mi SSE 12.7 mph - N/A   Mostly Cloudy
9:00 PM 52 °F - 43 °F 62% 30.04 in 16 mi SSE 13.4 mph - -   Overcast
9:20 PM 51.8 °F - 42.8 °F 71% 30.01 in 6.2 mi SSE 11.5 mph - N/A   Mostly Cloudy
9:50 PM 51.8 °F - 42.8 °F 71% 30.01 in 6.2 mi SSE 9.2 mph - N/A   Mostly Cloudy
10:00 PM 51 °F - 43 °F 65% 30.03 in 19 mi SSE 8.9 mph - -   Mostly Cloudy
10:20 PM 51.8 °F - 42.8 °F 71% 30.01 in 6.2 mi SSE 9.2 mph - N/A   Scattered Clouds
10:50 PM 51.8 °F - 42.8 °F 71% 30.01 in 6.2 mi SSE 8.1 mph - N/A   Scattered Clouds
11:20 PM 50.0 °F - 42.8 °F 76% 30.01 in 6.2 mi SSE 6.9 mph - N/A   Scattered Clouds
11:50 PM 51.8 °F - 44.6 °F 76% 30.01 in 6.2 mi SSE 5.8 mph - N/A   Mostly Cloudy